Regional Weather Roundup
Issued by NWS

Home | Current Version | Previous Version | Graphics & Text | Print | Product List | Glossary On
Versions: 1 2 3 4 5 6 7 8 9 10 11 12 13 14 15 16 17 18 19 20 21 22 23 24 25 26 27 28 29 30 31 32 33 34 35 36 37 38 39 40 41 42 43 44 45 46 47 48 49 50
000
ASUS43 KDMX 192306
RWRIA

WEATHER ROUNDUP FOR IOWA
NATIONAL WEATHER SERVICE DES MOINES IA
500 PM CST MON FEB 19 2018

NOTE: "FAIR" INDICATES FEW OR NO CLOUDS BELOW 12,000 FEET WITH NO
SIGNIFICANT WEATHER AND/OR OBSTRUCTIONS TO VISIBILITY.

* - THESE STATIONS ARE NOT NWS STATIONS...THUS NOT UNDER NWS
QUALITY CONTROL.  THEY ALSO DO NOT REPORT WEATHER SUCH
AS PRECIPITATION OR FOG.

IAZ001>003-012>014-020>022-031>034-043>046-200000-
   NORTHWEST IOWA

CITY           SKY/WX    TMP DP  RH WIND       PRES   REMARKS
CARROLL *      CLOUDY    25  23  93 NW15      29.79S FOG     WCI  12
CHEROKEE *     CLOUDY    20  19  97 N9        29.84S FOG     WCI   9
DENISON *      PTCLDY    23  21  93 N12       29.82S FOG     WCI  12
LE MARS *      MOCLDY    19  18  93 MISG      29.85F FOG
ORANGE CITY *  CLOUDY    19  19 100 NE12G18   29.83F FOG     WCI   7
SHELDON *      LGT SNOW  18  18 100 MISG      29.82F
SIOUX CITY     CLOUDY    20  18  92 N14       29.85S WCI   7
SPENCER        LGT SNOW  21  18  88 N18       29.82R VSB 1   WCI   6
STORM LAKE *   CLEAR     19  19 100 MISG      29.79F FOG
$$

IAZ055>058-069>071-079>083-090>094-200000-
   SOUTHWEST IOWA

CITY           SKY/WX    TMP DP  RH WIND       PRES   REMARKS
ATLANTIC *     CLOUDY    25  25 100 NW13      29.81R WCI  13
AUDUBON *      CLOUDY    25  21  86 CALM      29.79R FOG
CLARINDA *     CLOUDY    28  28 100 N9G16     29.84S WCI  20
COUNCIL BLFS * CLOUDY    23  23 100 NW14      29.82S WCI  11
CRESTON *      CLOUDY    28  28 100 NW12      29.79R WCI  18
HARLAN  *      CLOUDY    25  25 100 N14G21    29.83S WCI  13
LAMONI         CLOUDY    33  30  88 NW13      29.76R WCI  24
RED OAK *      CLOUDY    27  27 100 NW9       29.82R WCI  17
SHENANDOAH *   CLOUDY    27  27 100 NW10      29.85S WCI  17
$$

IAZ047>049-059>061-072>074-084-200000-
   CENTRAL IOWA

CITY           SKY/WX    TMP DP  RH WIND       PRES   REMARKS
AMES           CLOUDY    32  30  92 NW12      29.75R FOG     WCI  23
ANKENY *       CLOUDY    32  32 100 W12       29.77R FOG     WCI  23
BOONE *        CLOUDY    30  30 100 MISG      29.74R FOG
CHARITON *     CLOUDY    34  34 100 W12       29.75R FOG     WCI  25
DES MOINES     CLOUDY    32  30  92 NW12      29.77R FOG     WCI  23
GRINNELL*      FOG       36  36  99 W16       29.71S VSB 1/4 WCI  27
KNOXVILLE *    CLOUDY    34  34 100 W13       29.74R FOG     WCI  25
MARSHALLTOWN   FOG       35  35 100 W9        29.71R VSB 1/2 WCI  28
NEWTON *       FOG       34  34 100 W14       29.73S VSB 1/4 WCI  24
PELLA *        CLOUDY    35  35  97 W8        29.75R FOG     WCI  29
PERRY *        CLOUDY    29  29  99 NW10G16   29.79R WCI  19
$$

IAZ004>006-015-016-023>025-035-036-200000-
   NORTH CENTRAL IOWA

CITY           SKY/WX    TMP DP  RH WIND       PRES   REMARKS
ALGONA *       CLEAR     25 N/A N/A MISG      29.78R FOG
CLARION *      CLOUDY    30  30 100 NW12G18   29.74R FOG     WCI  21
ESTHERVILLE    CLOUDY    19  18  95 N20       29.81R FOG     WCI   3
FORT DODGE *   CLOUDY    25  24  96 NW9       29.79R FOG     WCI  15
MASON CITY     CLOUDY    30  29  96 N13       29.73R FOG     WCI  20
FOREST CITY *  CLOUDY    30  30 100 N8        29.75R FOG     WCI  23
WEBSTER CITY * CLOUDY    30  30 100 NW16      29.75R WCI  19
IOWA FALLS *   CLOUDY    34  34  99 NW8       29.73R FOG     WCI  27
$$

IAZ007>011-017>019-026>030-037>042-050>054-066-200000-
   NORTHEAST IOWA

CITY           SKY/WX    TMP DP  RH WIND       PRES   REMARKS
CEDAR RAPIDS   CLOUDY    47  47 100 W8        29.67S FOG
CHARLES CITY * CLOUDY    34  34 100 NE8       29.70R FOG     WCI  27
CLINTON *      LGT RAIN  54  52  93 MISG        N/A
DECORAH *      FOG       36  36 100 NE6       29.69S VSB 1/2 WCI  31
DUBUQUE        FOG       37  36  96 N9        29.71R VSB<1/4 WCI  30
MONTICELLO *   FOG       39  39 100 CALM      29.68S VSB<1/4
OELWEIN *      FOG       36  36 100 E3        29.69R VSB<1/4
WATERLOO       FOG       36  36 100 N5        29.69R VSB 1/4 WCI  32
$$

IAZ064-065-067-068-078-200000-
   EAST CENTRAL IOWA

CITY           SKY/WX    TMP DP  RH WIND       PRES   REMARKS
DAVENPORT      LGT RAIN  61  55  81 S16       29.72R
IOWA CITY      HVY RAIN  51  48  89 SW9       29.72R FOG
MT. PLEASANT * CLOUDY    59  59 100 S20G25    29.71R
MUSCATINE *    CLOUDY    55  54  94 SW8       29.72R
QUAD CITIES    CLOUDY    62  57  83 S17G28    29.69R
$$

IAZ062-063-075>077-085>089-095>099-200000-
   SOUTHEAST IOWA

CITY           SKY/WX    TMP DP  RH WIND       PRES   REMARKS
BURLINGTON     CLOUDY    60  57  89 S18       29.73R
FAIRFIELD *    CLOUDY    45  45 100 NW10G16   29.72R FOG
FORT MADISON * CLOUDY    59  57  94 S14G20    29.74R
KEOKUK *       CLOUDY    61  59  94 S14G20    29.73R
OSKALOOSA *    LGT RAIN  37  36  99 W10       29.75R WCI  29
OTTUMWA        LGT RAIN  40  39  97 W8        29.74R FOG     WCI  34
WASHINGTON *   LGT RAIN  50  50 100 W14       29.73R
$$

ABBREVIATIONS USED IN REMARKS
   TC - TEMPERATURES IN CELSIUS
  WCI - WIND CHILL INDEX
   HX - HEAT INDEX
  VSB - VISIBILITY
$$





USA.gov is the U.S. government's official web portal to all federal, state and local government web resources and services.